Main page
METAR-TAF:

METAR-TAF

Airports :

Garner Field

Uvalde, Texas, United States

latitude: 29-12-40N, longitude: 099-44-36W, elevation: 941 ft

Current weather observation

The report was made 7 hours and 35 minutes ago, at 11:50 UTC
Wind 6 mph from the East
Temperature 77°F
Humidity 100%
Pressure 29.96 in. Hg
Visibility: 10 miles
Overcast at a height of 1300 ft

METAR: KUVA 251150Z AUTO 10005KT 10SM OVC013 25/25 A2996 RMK AO2 T02500250 10278 20244

Time: 14:25 (19:25 UTC)


TAF: missing

Weather observations and forecasts of more than 4000 airports (METAR and TAF reports).

The available stations are represented by yellow and red dots on the map.

Hover mouse over dot to see the name of the station.

Then click to see weather observations and forecasts.

To change the map : click on the green buttons with a black cross to zoom in, on the green button with a dash to zoom out, or on the green arrows for adjacent maps.


METAR-TAF: